UAL1584 KEGE-KDEN

Flight info

Callsign UAL1584
Flight time 0h 32m
Altitude 19000
Route GYPSM6 RLG LONGZ LONGZ4
Aircraft A21N/M-SDE3FGHIRWY/LB1

Departure

Time 2026-05-06 02:35
Airport Eagle County Regional Airport (KEGE)

Arrival

Time 2026-05-06 03:08
Airport Denver International Airport (KDEN)
Time Latitude Longitude Altitude Speed Heading
2026-05-06 02:22 39.64053 -106.91538 6527 ft 0 kts 173°
2026-05-06 02:27 39.64060 -106.91540 6527 ft 2 kts 173°
2026-05-06 02:27 39.64076 -106.91542 6528 ft 2 kts 173°
2026-05-06 02:28 39.64092 -106.91544 6528 ft 2 kts 173°
2026-05-06 02:28 39.64108 -106.91547 6529 ft 2 kts 172°
2026-05-06 02:28 39.64122 -106.91539 6531 ft 0 kts 283°
2026-05-06 02:31 39.64136 -106.91562 6527 ft 9 kts 329°
2026-05-06 02:32 39.64177 -106.91503 6526 ft 11 kts 81°
2026-05-06 02:32 39.64189 -106.91396 6528 ft 15 kts 82°
2026-05-06 02:32 39.64206 -106.91237 6530 ft 19 kts 81°
2026-05-06 02:32 39.64224 -106.91060 6535 ft 20 kts 82°
2026-05-06 02:33 39.64245 -106.90883 6538 ft 19 kts 81°
2026-05-06 02:33 39.64258 -106.90768 6541 ft 19 kts 81°
2026-05-06 02:33 39.64313 -106.90267 6550 ft 24 kts 82°
2026-05-06 02:34 39.64335 -106.90072 6551 ft 15 kts 80°
2026-05-06 02:34 39.64417 -106.90028 6552 ft 15 kts 327°
2026-05-06 02:34 39.64430 -106.90184 6550 ft 31 kts 261°
2026-05-06 02:34 39.64365 -106.90785 6539 ft 101 kts 262°
2026-05-06 02:35 39.64239 -106.91951 6500 ft 159 kts 262°
2026-05-06 02:35 39.64064 -106.93447 7046 ft 162 kts 259°
2026-05-06 02:35 39.63594 -106.94792 7644 ft 170 kts 230°
2026-05-06 02:35 39.62774 -106.95897 8326 ft 169 kts 230°
2026-05-06 02:36 39.61941 -106.97078 8681 ft 188 kts 231°
2026-05-06 02:36 39.61014 -106.98397 8970 ft 206 kts 231°
2026-05-06 02:36 39.60341 -107.00014 9471 ft 206 kts 268°
2026-05-06 02:36 39.60765 -107.01737 9993 ft 209 kts 308°
2026-05-06 02:37 39.62016 -107.02813 10226 ft 229 kts 345°
2026-05-06 02:37 39.63664 -107.02892 10417 ft 244 kts 358°
2026-05-06 02:37 39.65384 -107.03187 10523 ft 258 kts 340°
2026-05-06 02:37 39.67108 -107.04136 10635 ft 279 kts 332°
2026-05-06 02:38 39.68910 -107.05283 10899 ft 297 kts 331°
2026-05-06 02:38 39.70814 -107.06504 11237 ft 312 kts 330°
2026-05-06 02:38 39.72806 -107.07778 11616 ft 324 kts 330°
2026-05-06 02:38 39.74923 -107.08916 11989 ft 340 kts 345°
2026-05-06 02:39 39.77337 -107.08883 12368 ft 361 kts 13°
2026-05-06 02:39 39.79580 -107.07285 12700 ft 382 kts 39°
2026-05-06 02:39 39.81241 -107.04486 12912 ft 400 kts 62°
2026-05-06 02:39 39.82338 -107.01129 13393 ft 407 kts 66°
2026-05-06 02:40 39.83421 -106.97696 13901 ft 413 kts 66°
2026-05-06 02:40 39.84533 -106.94226 14418 ft 416 kts 66°
2026-05-06 02:40 39.85654 -106.90762 15149 ft 414 kts 66°
2026-05-06 02:40 39.86782 -106.87307 15781 ft 414 kts 65°
2026-05-06 02:41 39.87919 -106.83854 16362 ft 418 kts 65°
2026-05-06 02:41 39.89085 -106.80324 16682 ft 429 kts 65°
2026-05-06 02:41 39.90246 -106.76757 17365 ft 428 kts 66°
2026-05-06 02:41 39.91382 -106.73169 18094 ft 427 kts 66°
2026-05-06 02:42 39.92491 -106.69554 18531 ft 432 kts 67°
2026-05-06 02:42 39.93595 -106.65881 18767 ft 437 kts 67°
2026-05-06 02:42 39.94718 -106.62164 18835 ft 448 kts 67°
2026-05-06 02:42 39.95883 -106.58350 18835 ft 457 kts 66°
2026-05-06 02:43 39.97070 -106.54501 18833 ft 458 kts 66°
2026-05-06 02:43 39.98268 -106.50645 18833 ft 459 kts 66°
2026-05-06 02:43 39.99476 -106.46768 18850 ft 468 kts 66°
2026-05-06 02:43 40.00907 -106.42907 18850 ft 478 kts 58°
2026-05-06 02:44 40.02666 -106.39201 18851 ft 482 kts 56°
2026-05-06 02:44 40.04445 -106.35470 18850 ft 484 kts 56°
2026-05-06 02:44 40.06218 -106.31725 18848 ft 485 kts 56°
2026-05-06 02:44 40.07987 -106.27961 18850 ft 486 kts 56°
2026-05-06 02:45 40.09749 -106.24201 18846 ft 486 kts 56°
2026-05-06 02:45 40.11517 -106.20432 18874 ft 486 kts 56°
2026-05-06 02:45 40.13290 -106.16660 18875 ft 486 kts 56°
2026-05-06 02:45 40.15060 -106.12899 18875 ft 486 kts 56°
2026-05-06 02:46 40.16828 -106.09133 18866 ft 485 kts 56°
2026-05-06 02:46 40.18592 -106.05372 18880 ft 485 kts 56°
2026-05-06 02:46 40.20355 -106.01606 18876 ft 485 kts 56°
2026-05-06 02:46 40.22114 -105.97844 18885 ft 485 kts 56°
2026-05-06 02:47 40.23877 -105.94071 18900 ft 486 kts 56°
2026-05-06 02:47 40.25652 -105.90266 18988 ft 490 kts 56°
2026-05-06 02:47 40.27425 -105.86457 18967 ft 491 kts 56°
2026-05-06 02:47 40.29203 -105.82635 18970 ft 491 kts 56°
2026-05-06 02:48 40.30983 -105.78807 18964 ft 491 kts 56°
2026-05-06 02:48 40.32759 -105.74987 18979 ft 491 kts 56°
2026-05-06 02:48 40.34532 -105.71167 18974 ft 490 kts 56°
2026-05-06 02:48 40.36067 -105.67219 18979 ft 479 kts 66°
2026-05-06 02:49 40.37030 -105.63094 19022 ft 471 kts 76°
2026-05-06 02:49 40.37457 -105.58844 19015 ft 471 kts 86°
2026-05-06 02:49 40.37338 -105.54553 19000 ft 471 kts 97°
2026-05-06 02:49 40.36733 -105.50332 19014 ft 471 kts 102°
2026-05-06 02:50 40.36275 -105.47500 19045 ft 471 kts 102°
2026-05-06 02:50 40.35356 -105.41931 19046 ft 471 kts 105°
2026-05-06 02:50 40.34720 -105.39208 19060 ft 470 kts 111°
2026-05-06 02:50 40.33363 -105.35263 19073 ft 468 kts 121°
2026-05-06 02:51 40.31628 -105.31745 19058 ft 464 kts 130°
2026-05-06 02:51 40.29623 -105.28366 19104 ft 463 kts 131°
2026-05-06 02:51 40.27648 -105.25039 19115 ft 462 kts 131°
2026-05-06 02:51 40.25684 -105.21721 19120 ft 461 kts 130°
2026-05-06 02:52 40.23724 -105.18409 19070 ft 456 kts 131°
2026-05-06 02:52 40.21816 -105.15185 18913 ft 440 kts 131°
2026-05-06 02:52 40.19970 -105.12067 18793 ft 426 kts 131°
2026-05-06 02:52 40.18187 -105.09061 18672 ft 412 kts 131°
2026-05-06 02:53 40.16458 -105.06153 18555 ft 395 kts 131°
2026-05-06 02:53 40.14831 -105.03415 18282 ft 369 kts 133°
2026-05-06 02:53 40.13111 -105.01013 17600 ft 360 kts 140°
2026-05-06 02:53 40.11340 -104.98731 17205 ft 355 kts 140°
2026-05-06 02:54 40.09626 -104.96534 16825 ft 352 kts 140°
2026-05-06 02:54 40.07886 -104.94307 16353 ft 348 kts 140°
2026-05-06 02:54 40.06172 -104.92107 15700 ft 342 kts 140°
2026-05-06 02:54 40.04492 -104.89948 15002 ft 336 kts 140°
2026-05-06 02:55 40.02832 -104.87815 14650 ft 333 kts 140°
2026-05-06 02:55 40.01196 -104.85714 14400 ft 328 kts 140°
2026-05-06 02:55 39.99580 -104.83649 14163 ft 324 kts 142°
2026-05-06 02:55 39.97787 -104.81949 13927 ft 316 kts 155°
2026-05-06 02:56 39.95788 -104.80414 13688 ft 351 kts 152°
2026-05-06 02:56 39.93512 -104.79031 13397 ft 364 kts 169°
2026-05-06 02:56 39.91067 -104.78637 13118 ft 345 kts 187°
2026-05-06 02:56 39.88731 -104.79003 12855 ft 333 kts 192°
2026-05-06 02:57 39.86470 -104.79427 12597 ft 323 kts 192°
2026-05-06 02:57 39.84282 -104.79834 12066 ft 308 kts 189°
2026-05-06 02:57 39.82153 -104.79996 11315 ft 304 kts 180°
2026-05-06 02:57 39.80119 -104.79986 11048 ft 280 kts 187°
2026-05-06 02:58 39.78251 -104.80360 10953 ft 265 kts 195°
2026-05-06 02:58 39.76520 -104.80938 10957 ft 248 kts 191°
2026-05-06 02:58 39.74823 -104.81158 10998 ft 241 kts 184°
2026-05-06 02:58 39.73191 -104.81174 10882 ft 229 kts 181°
2026-05-06 02:59 39.71639 -104.81130 10729 ft 218 kts 180°
2026-05-06 02:59 39.70153 -104.81087 10384 ft 211 kts 179°
2026-05-06 02:59 39.68687 -104.81058 9925 ft 210 kts 179°
2026-05-06 02:59 39.67231 -104.81040 9427 ft 208 kts 178°
2026-05-06 03:00 39.65786 -104.81033 8982 ft 205 kts 178°
2026-05-06 03:00 39.64354 -104.81034 8974 ft 209 kts 178°
2026-05-06 03:00 39.62935 -104.81036 9010 ft 195 kts 178°
2026-05-06 03:00 39.61596 -104.80992 9008 ft 189 kts 169°
2026-05-06 03:01 39.60490 -104.80166 9011 ft 187 kts 129°
2026-05-06 03:01 39.60056 -104.78600 9014 ft 188 kts 95°
2026-05-06 03:01 39.60090 -104.76898 9013 ft 189 kts 88°
2026-05-06 03:01 39.60188 -104.75201 9012 ft 189 kts 87°
2026-05-06 03:02 39.60288 -104.73503 9010 ft 188 kts 87°
2026-05-06 03:02 39.60658 -104.71869 8971 ft 191 kts 63°
2026-05-06 03:02 39.61505 -104.70528 8971 ft 193 kts 50°
2026-05-06 03:02 39.62493 -104.69346 8971 ft 196 kts 31°
2026-05-06 03:03 39.63827 -104.68959 8973 ft 200 kts
2026-05-06 03:03 39.65220 -104.68951 8973 ft 200 kts
2026-05-06 03:03 39.66614 -104.68945 8976 ft 201 kts
2026-05-06 03:03 39.68009 -104.68932 8966 ft 201 kts
2026-05-06 03:04 39.69403 -104.68916 8792 ft 200 kts
2026-05-06 03:04 39.70785 -104.68901 8558 ft 198 kts
2026-05-06 03:04 39.72158 -104.68885 8274 ft 196 kts
2026-05-06 03:04 39.73516 -104.68869 8006 ft 195 kts
2026-05-06 03:05 39.74869 -104.68853 7740 ft 193 kts
2026-05-06 03:05 39.76206 -104.68838 7482 ft 191 kts
2026-05-06 03:05 39.77531 -104.68822 7274 ft 189 kts
2026-05-06 03:05 39.78780 -104.68810 7030 ft 171 kts
2026-05-06 03:06 39.79944 -104.68796 6814 ft 164 kts
2026-05-06 03:06 39.81066 -104.68782 6594 ft 160 kts
2026-05-06 03:06 39.82172 -104.68769 6336 ft 158 kts
2026-05-06 03:06 39.83261 -104.68756 6072 ft 154 kts
2026-05-06 03:07 39.84325 -104.68744 5842 ft 151 kts
2026-05-06 03:07 39.85375 -104.68731 5622 ft 150 kts 359°
2026-05-06 03:07 39.86416 -104.68719 5408 ft 149 kts 359°
2026-05-06 03:07 39.87384 -104.68708 5361 ft 119 kts
2026-05-06 03:08 39.88041 -104.68700 5362 ft 69 kts
2026-05-06 03:08 39.88384 -104.68681 5361 ft 33 kts 12°
2026-05-06 03:08 39.88563 -104.68595 5359 ft 20 kts 30°
2026-05-06 03:08 39.88585 -104.68496 5360 ft 13 kts 133°
2026-05-06 03:09 39.88491 -104.68481 5361 ft 15 kts 181°
2026-05-06 03:09 39.88379 -104.68482 5361 ft 17 kts 180°
2026-05-06 03:09 39.88252 -104.68483 5361 ft 19 kts 180°
2026-05-06 03:09 39.88104 -104.68485 5361 ft 25 kts 180°
2026-05-06 03:10 39.87890 -104.68493 5361 ft 36 kts 182°
2026-05-06 03:10 39.87613 -104.68490 5361 ft 42 kts 180°
2026-05-06 03:10 39.87322 -104.68495 5362 ft 42 kts 181°
2026-05-06 03:10 39.87030 -104.68497 5361 ft 42 kts 180°
2026-05-06 03:11 39.86745 -104.68500 5362 ft 41 kts 181°
2026-05-06 03:11 39.86475 -104.68506 5363 ft 31 kts 180°
2026-05-06 03:11 39.86300 -104.68506 5365 ft 23 kts 180°
2026-05-06 03:11 39.86148 -104.68508 5367 ft 17 kts 180°
2026-05-06 03:12 39.86039 -104.68467 5367 ft 17 kts 123°
2026-05-06 03:12 39.86031 -104.68318 5374 ft 16 kts 87°
2026-05-06 03:12 39.86047 -104.68179 5379 ft 15 kts 69°
2026-05-06 03:12 39.86069 -104.68040 5379 ft 17 kts 90°
2026-05-06 03:13 39.86070 -104.67879 5379 ft 19 kts 91°
2026-05-06 03:13 39.86066 -104.67699 5376 ft 21 kts 91°
2026-05-06 03:13 39.86065 -104.67503 5375 ft 23 kts 89°
2026-05-06 03:13 39.86067 -104.67319 5379 ft 6 kts 89°
2026-05-06 03:14 39.86056 -104.67258 5375 ft 8 kts 129°
2026-05-06 03:14 39.86001 -104.67249 5379 ft 9 kts 181°
2026-05-06 03:14 39.85968 -104.67249 5376 ft 2 kts 180°
2026-05-06 03:14 39.85943 -104.67249 5377 ft 5 kts 180°
2026-05-06 03:15 39.85932 -104.67249 5379 ft 0 kts 180°